Location: Killam
(52.7910°N, 111.8608°W)
Time: 21:19:13
(UTC+00:00)

ESTCUBE 1 - Visible Passes

Search period start: 16 March 2026 00:00
Search period end: 26 March 2026 00:00
Orbit: 621 x 631 km, 97.7° (Epoch: 16 March)

Date Brightness Start Highest point End Pass type
(mag) Time Alt. Az. Time Alt. Az. Time Alt. Az.
16 Mar ? 02:49:48 18° E 02:51:35 24° ENE 02:55:05 10° N visible
16 Mar ? 04:27:05 50° SW 04:27:33 53° W 04:31:52 10° NNW visible
17 Mar ? 03:08:58 25° ESE 03:10:29 33° ENE 03:14:25 10° N visible
17 Mar ? 04:46:14 34° WSW 04:46:43 35° W 04:50:46 10° NNW visible
18 Mar ? 03:28:05 35° ESE 03:29:27 47° ENE 03:33:40 10° N visible
18 Mar ? 05:05:23 24° WSW 05:05:55 24° W 05:09:32 10° NW visible
19 Mar ? 02:11:09 10° ENE 02:12:59 12° NE 02:14:49 10° NNE visible
19 Mar ? 03:47:14 45° SE 03:48:27 70° ENE 03:52:49 10° N visible
19 Mar ? 05:24:31 16° W 05:25:11 17° W 05:28:04 10° NW visible
20 Mar ? 02:29:05 11° E 02:31:46 17° ENE 02:34:38 10° NNE visible
20 Mar ? 04:06:22 49° S 04:07:29 80° WSW 04:11:54 10° NNW visible
20 Mar ? 05:43:38 11° W 05:44:30 11° W 05:45:58 10° WNW visible
21 Mar ? 02:48:13 15° ESE 02:50:37 23° ENE 02:54:06 10° N visible
21 Mar ? 04:25:30 42° SSW 04:26:34 53° W 04:30:54 10° NNW visible
22 Mar ? 03:07:22 21° ESE 03:09:30 32° ENE 03:13:26 10° N visible
22 Mar ? 04:44:37 31° SW 04:45:43 36° W 04:49:48 10° NNW visible
23 Mar ? 03:26:28 27° SE 03:28:27 46° ENE 03:32:39 10° N visible
23 Mar ? 05:03:46 22° WSW 05:04:54 25° W 05:08:33 10° NW visible
24 Mar ? 03:45:37 34° SE 03:47:25 69° ENE 03:51:48 10° N visible
24 Mar ? 05:22:52 15° WSW 05:24:09 17° W 05:27:04 10° NW visible
25 Mar ? 02:27:56 10° E 02:30:45 17° NE 02:33:34 10° NNE visible
25 Mar ? 04:04:44 37° S 04:06:27 81° WSW 04:10:52 10° NNW visible
25 Mar ? 05:42:00 10° WSW 05:43:26 12° W 05:45:00 10° WNW visible
